Time,TemperatureF,DewpointF,PressureIn,WindDirection,WindDirectionDegrees,WindSpeedMPH,WindSpeedGustMPH,Humidity,HourlyPrecipIn,Conditions,Clouds,dailyrainin,SoftwareType,DateUTC
2013-05-15 00:03:00,68.5,51.7,30.05,WSW,247,0.0,0.0,55,0.00,,,0.00,WUHU21623XXSP,2013-05-15 05:03:00,
2013-05-15 00:08:00,68.5,51.7,30.06,South,180,0.0,0.0,55,0.00,,,0.00,WUHU21623XXSP,2013-05-15 05:08:00,
2013-05-15 00:13:00,68.5,51.7,30.06,SW,225,0.0,0.0,55,0.00,,,0.00,WUHU21623XXSP,2013-05-15 05:13:00,
2013-05-15 00:18:00,68.4,51.5,30.06,SSW,202,0.0,0.0,55,0.00,,,0.00,WUHU21623XXSP,2013-05-15 05:18:00,
2013-05-15 00:23:00,68.2,51.3,30.06,SSW,202,0.0,0.0,55,0.00,,,0.00,WUHU21623XXSP,2013-05-15 05:23:00,
2013-05-15 00:28:00,68.2,50.8,30.06,SSW,202,0.0,0.0,54,0.00,,,0.00,WUHU21623XXSP,2013-05-15 05:28:00,
2013-05-15 00:33:00,68.2,50.8,30.07,SSW,202,0.0,0.0,54,0.00,,,0.00,WUHU21623XXSP,2013-05-15 05:33:00,
2013-05-15 00:38:00,67.8,50.5,30.06,SSW,202,0.0,0.0,54,0.00,,,0.00,WUHU21623XXSP,2013-05-15 05:38:00,
2013-05-15 00:43:00,67.8,50.5,30.06,SSW,202,0.0,0.0,54,0.00,,,0.00,WUHU21623XXSP,2013-05-15 05:43:00,
2013-05-15 00:48:00,67.6,50.4,30.06,SSW,202,0.0,0.0,54,0.00,,,0.00,WUHU21623XXSP,2013-05-15 05:48:00,
2013-05-15 00:53:00,67.6,50.4,30.06,South,180,0.0,0.0,54,0.00,,,0.00,WUHU21623XXSP,2013-05-15 05:53:00,
2013-05-15 00:58:00,67.6,50.4,30.07,SSW,202,0.0,0.0,54,0.00,,,0.00,WUHU21623XXSP,2013-05-15 05:58:00,
2013-05-15 01:03:00,67.6,50.4,30.06,SSW,202,1.1,1.1,54,0.00,,,0.00,WUHU21623XXSP,2013-05-15 06:03:00,
2013-05-15 01:08:00,67.6,50.4,30.06,SSW,202,0.0,1.1,54,0.00,,,0.00,WUHU21623XXSP,2013-05-15 06:08:00,
2013-05-15 01:13:00,67.6,50.4,30.06,SW,225,0.0,0.0,54,0.00,,,0.00,WUHU21623XXSP,2013-05-15 06:13:00,
2013-05-15 01:18:00,67.6,50.4,30.06,SSW,202,0.0,0.0,54,0.00,,,0.00,WUHU21623XXSP,2013-05-15 06:18:00,
2013-05-15 01:23:00,67.3,50.0,30.07,SW,225,0.0,0.0,54,0.00,,,0.00,WUHU21623XXSP,2013-05-15 06:23:00,
2013-05-15 01:28:00,67.3,50.0,30.06,SSW,202,0.0,0.0,54,0.00,,,0.00,WUHU21623XXSP,2013-05-15 06:28:00,
2013-05-15 01:33:00,67.1,50.4,30.06,SSW,202,0.0,0.0,55,0.00,,,0.00,WUHU21623XXSP,2013-05-15 06:33:00,
2013-05-15 01:38:00,66.9,49.7,30.06,SW,225,0.0,0.0,54,0.00,,,0.00,WUHU21623XXSP,2013-05-15 06:38:00,
2013-05-15 01:43:00,66.9,49.7,30.06,SSW,202,0.0,0.0,54,0.00,,,0.00,WUHU21623XXSP,2013-05-15 06:43:00,
2013-05-15 01:48:00,66.7,50.0,30.06,SSW,202,0.0,0.0,55,0.00,,,0.00,WUHU21623XXSP,2013-05-15 06:48:00,
2013-05-15 01:53:00,66.6,49.9,30.06,SSW,202,0.0,0.0,55,0.00,,,0.00,WUHU21623XXSP,2013-05-15 06:53:00,
2013-05-15 01:58:00,66.4,49.7,30.06,SSW,202,0.0,0.0,55,0.00,,,0.00,WUHU21623XXSP,2013-05-15 06:58:00,
2013-05-15 02:03:00,66.0,49.9,30.06,SSW,202,0.0,0.0,56,0.00,,,0.00,WUHU21623XXSP,2013-05-15 07:03:00,
2013-05-15 02:08:00,65.8,49.7,30.06,SSW,202,0.0,0.0,56,0.00,,,0.00,WUHU21623XXSP,2013-05-15 07:08:00,
2013-05-15 02:13:00,65.7,49.5,30.06,SSW,202,0.0,0.0,56,0.00,,,0.00,WUHU21623XXSP,2013-05-15 07:13:00,
2013-05-15 02:18:00,65.7,49.5,30.06,SSW,202,0.0,0.0,56,0.00,,,0.00,WUHU21623XXSP,2013-05-15 07:18:00,
2013-05-15 02:23:00,65.5,49.3,30.06,South,180,0.0,0.0,56,0.00,,,0.00,WUHU21623XXSP,2013-05-15 07:23:00,
2013-05-15 02:28:00,65.7,49.5,30.06,SSW,202,0.0,0.0,56,0.00,,,0.00,WUHU21623XXSP,2013-05-15 07:28:00,
2013-05-15 02:33:00,65.7,49.5,30.06,SSW,202,0.0,0.0,56,0.00,,,0.00,WUHU21623XXSP,2013-05-15 07:33:00,
2013-05-15 02:38:00,65.5,49.5,30.06,SSW,202,0.0,0.0,56,0.00,,,0.00,WUHU21623XXSP,2013-05-15 07:38:00,
2013-05-15 02:43:00,65.5,49.3,30.06,SSW,202,0.0,0.0,56,0.00,,,0.00,WUHU21623XXSP,2013-05-15 07:43:00,
2013-05-15 02:48:00,65.7,49.5,30.06,SSW,202,0.0,0.0,56,0.00,,,0.00,WUHU21623XXSP,2013-05-15 07:48:00,
2013-05-15 02:53:00,65.8,49.7,30.06,South,180,0.0,0.0,56,0.00,,,0.00,WUHU21623XXSP,2013-05-15 07:53:00,
2013-05-15 02:58:00,65.8,49.2,30.06,South,180,0.0,2.9,55,0.00,,,0.00,WUHU21623XXSP,2013-05-15 07:58:00,
2013-05-15 03:03:00,65.8,49.2,30.06,South,180,0.0,2.9,55,0.00,,,0.00,WUHU21623XXSP,2013-05-15 08:03:00,
2013-05-15 03:08:00,66.0,49.4,30.06,SSW,202,1.1,1.1,55,0.00,,,0.00,WUHU21623XXSP,2013-05-15 08:08:00,
2013-05-15 03:13:00,66.0,49.4,30.05,South,180,0.0,1.1,55,0.00,,,0.00,WUHU21623XXSP,2013-05-15 08:13:00,
2013-05-15 03:18:00,66.0,49.4,30.05,SSW,202,0.0,0.0,55,0.00,,,0.00,WUHU21623XXSP,2013-05-15 08:18:00,
2013-05-15 03:23:00,66.0,49.4,30.05,SSW,202,0.0,4.7,55,0.00,,,0.00,WUHU21623XXSP,2013-05-15 08:23:00,
2013-05-15 03:28:00,66.0,49.4,30.05,South,180,0.0,4.7,55,0.00,,,0.00,WUHU21623XXSP,2013-05-15 08:28:00,
2013-05-15 03:33:00,66.2,49.5,30.05,South,180,3.1,3.1,55,0.00,,,0.00,WUHU21623XXSP,2013-05-15 08:33:00,
2013-05-15 03:38:00,66.4,49.7,30.05,SSW,202,0.0,3.1,55,0.00,,,0.00,WUHU21623XXSP,2013-05-15 08:38:00,
2013-05-15 03:43:00,66.4,49.2,30.05,SSW,202,0.0,0.0,54,0.00,,,0.00,WUHU21623XXSP,2013-05-15 08:43:00,
2013-05-15 03:48:00,66.6,49.4,30.04,SSW,202,0.0,0.9,54,0.00,,,0.00,WUHU21623XXSP,2013-05-15 08:48:00,
2013-05-15 03:53:00,66.6,49.4,30.05,SSW,202,0.0,0.9,54,0.00,,,0.00,WUHU21623XXSP,2013-05-15 08:53:00,
2013-05-15 03:58:00,66.6,49.4,30.04,SSW,202,0.0,0.0,54,0.00,,,0.00,WUHU21623XXSP,2013-05-15 08:58:00,
2013-05-15 04:03:00,66.7,50.0,30.04,SW,225,0.0,0.0,55,0.00,,,0.00,WUHU21623XXSP,2013-05-15 09:03:00,
2013-05-15 04:08:00,66.7,50.0,30.04,SSW,202,0.0,2.0,55,0.00,,,0.00,WUHU21623XXSP,2013-05-15 09:08:00,
2013-05-15 04:13:00,66.7,50.0,30.04,WSW,247,0.0,2.0,55,0.00,,,0.00,WUHU21623XXSP,2013-05-15 09:13:00,
2013-05-15 04:18:00,66.7,50.0,30.05,WSW,247,0.0,6.0,55,0.00,,,0.00,WUHU21623XXSP,2013-05-15 09:18:00,
2013-05-15 04:23:00,66.7,50.0,30.05,WSW,247,0.0,6.0,55,0.00,,,0.00,WUHU21623XXSP,2013-05-15 09:23:00,
2013-05-15 04:28:00,66.6,50.4,30.05,SSW,202,4.3,4.3,56,0.00,,,0.00,WUHU21623XXSP,2013-05-15 09:28:00,
2013-05-15 04:33:00,66.4,50.2,30.05,South,180,0.0,4.5,56,0.00,,,0.00,WUHU21623XXSP,2013-05-15 09:33:00,
2013-05-15 04:38:00,66.4,50.2,30.05,SSW,202,0.0,4.5,56,0.00,,,0.00,WUHU21623XXSP,2013-05-15 09:38:00,
2013-05-15 04:43:00,66.4,50.2,30.05,SSW,202,0.0,0.9,56,0.00,,,0.00,WUHU21623XXSP,2013-05-15 09:43:00,
2013-05-15 04:48:00,66.0,50.3,30.05,SSW,202,0.0,0.0,57,0.00,,,0.00,WUHU21623XXSP,2013-05-15 09:48:00,
2013-05-15 04:53:00,66.0,50.3,30.04,South,180,0.0,0.0,57,0.00,,,0.00,WUHU21623XXSP,2013-05-15 09:53:00,
2013-05-15 04:58:00,65.8,50.2,30.05,SSW,202,0.0,0.0,57,0.00,,,0.00,WUHU21623XXSP,2013-05-15 09:58:00,
2013-05-15 05:03:00,65.5,49.8,30.05,SSW,202,0.0,0.0,57,0.00,,,0.00,WUHU21623XXSP,2013-05-15 10:03:00,
2013-05-15 05:08:00,65.3,50.3,30.05,South,180,0.0,0.0,58,0.00,,,0.00,WUHU21623XXSP,2013-05-15 10:08:00,
2013-05-15 05:13:00,65.1,49.9,30.05,SSW,202,0.0,0.0,58,0.00,,,0.00,WUHU21623XXSP,2013-05-15 10:13:00,
2013-05-15 05:18:00,64.9,49.7,30.05,SSW,202,0.0,0.0,58,0.00,,,0.00,WUHU21623XXSP,2013-05-15 10:18:00,
2013-05-15 05:23:00,64.9,50.2,30.05,SSW,202,0.0,0.0,59,0.00,,,0.00,WUHU21623XXSP,2013-05-15 10:23:00,
2013-05-15 05:28:00,64.6,49.4,30.05,SSW,202,0.0,0.0,58,0.00,,,0.00,WUHU21623XXSP,2013-05-15 10:28:00,
2013-05-15 05:33:00,64.6,49.9,30.05,SSW,202,0.0,0.0,59,0.00,,,0.00,WUHU21623XXSP,2013-05-15 10:33:00,
2013-05-15 05:38:00,64.2,49.5,30.05,SSW,202,0.0,0.0,59,0.00,,,0.00,WUHU21623XXSP,2013-05-15 10:38:00,
2013-05-15 05:43:00,64.2,49.5,30.05,SSW,202,0.0,0.0,59,0.00,,,0.00,WUHU21623XXSP,2013-05-15 10:43:00,
2013-05-15 05:48:00,64.2,50.0,30.05,SW,225,0.0,0.0,60,0.00,,,0.00,WUHU21623XXSP,2013-05-15 10:48:00,
2013-05-15 05:53:00,64.2,50.0,30.05,SSW,202,0.0,0.0,61,0.00,,,0.00,WUHU21623XXSP,2013-05-15 10:53:00,
2013-05-15 05:58:00,64.2,50.4,30.05,SSW,202,0.0,0.0,61,0.00,,,0.00,WUHU21623XXSP,2013-05-15 10:58:00,
2013-05-15 06:04:00,64.2,50.4,30.05,SW,225,0.0,0.0,61,0.00,,,0.00,WUHU21623XXSP,2013-05-15 11:04:00,
2013-05-15 06:09:00,64.2,50.4,30.06,SW,225,0.0,0.0,61,0.00,,,0.00,WUHU21623XXSP,2013-05-15 11:09:00,
2013-05-15 06:14:00,64.2,50.4,30.06,SSW,202,0.0,0.0,61,0.00,,,0.00,WUHU21623XXSP,2013-05-15 11:14:00,
2013-05-15 06:19:00,64.2,50.9,30.06,SSW,202,0.0,0.0,62,0.00,,,0.00,WUHU21623XXSP,2013-05-15 11:19:00,
2013-05-15 06:24:00,64.2,50.9,30.06,SSW,202,0.0,0.0,62,0.00,,,0.00,WUHU21623XXSP,2013-05-15 11:24:00,
2013-05-15 06:29:00,64.2,51.3,30.06,South,180,0.0,0.0,63,0.00,,,0.00,WUHU21623XXSP,2013-05-15 11:29:00,
2013-05-15 06:35:00,64.2,51.3,30.06,South,180,0.0,0.0,63,0.00,,,0.00,WUHU21623XXSP,2013-05-15 11:35:00,
2013-05-15 06:40:00,64.2,51.7,30.06,SSW,202,0.0,0.0,64,0.00,,,0.00,WUHU21623XXSP,2013-05-15 11:40:00,
2013-05-15 06:45:00,64.6,52.1,30.06,SSW,202,0.0,0.0,65,0.00,,,0.00,WUHU21623XXSP,2013-05-15 11:45:00,
2013-05-15 06:50:00,64.8,52.7,30.06,SW,225,0.0,0.0,65,0.00,,,0.00,WUHU21623XXSP,2013-05-15 11:50:00,
2013-05-15 06:55:00,65.1,53.3,30.06,SW,225,1.8,1.8,66,0.00,,,0.00,WUHU21623XXSP,2013-05-15 11:55:00,
2013-05-15 07:00:00,65.3,53.6,30.06,SSW,202,0.0,1.8,66,0.00,,,0.00,WUHU21623XXSP,2013-05-15 12:00:00,
2013-05-15 07:05:00,65.5,53.8,30.06,South,180,0.0,1.8,66,0.00,,,0.00,WUHU21623XXSP,2013-05-15 12:05:00,
2013-05-15 07:10:00,65.7,53.8,30.06,West,270,0.0,0.0,67,0.00,,,0.00,WUHU21623XXSP,2013-05-15 12:10:00,
2013-05-15 07:15:00,65.8,54.5,30.06,SSW,202,0.0,0.0,67,0.00,,,0.00,WUHU21623XXSP,2013-05-15 12:15:00,
2013-05-15 07:20:00,66.0,54.7,30.06,SSW,202,0.0,0.0,67,0.00,,,0.00,WUHU21623XXSP,2013-05-15 12:20:00,
2013-05-15 07:25:00,66.4,55.5,30.06,SSW,202,0.0,0.0,68,0.00,,,0.00,WUHU21623XXSP,2013-05-15 12:25:00,
2013-05-15 07:30:00,66.7,55.8,30.06,South,180,0.0,0.0,68,0.00,,,0.00,WUHU21623XXSP,2013-05-15 12:30:00,
2013-05-15 07:35:00,67.1,56.2,30.06,South,180,0.7,0.7,68,0.00,,,0.00,WUHU21623XXSP,2013-05-15 12:35:00,
2013-05-15 07:40:00,67.3,56.3,30.06,WSW,247,0.0,0.7,67,0.00,,,0.00,WUHU21623XXSP,2013-05-15 12:40:00,
2013-05-15 07:45:00,67.5,55.9,30.06,SSW,202,4.3,4.3,68,0.00,,,0.00,WUHU21623XXSP,2013-05-15 12:45:00,
2013-05-15 07:50:00,67.6,56.7,30.06,South,180,0.0,4.3,68,0.00,,,0.00,WUHU21623XXSP,2013-05-15 12:50:00,
2013-05-15 07:55:00,67.8,56.9,30.06,SSW,202,0.0,0.0,68,0.00,,,0.00,WUHU21623XXSP,2013-05-15 12:55:00,
2013-05-15 08:00:00,67.8,56.9,30.06,SW,225,0.0,0.0,68,0.00,,,0.00,WUHU21623XXSP,2013-05-15 13:00:00,
2013-05-15 08:05:00,68.2,57.7,30.06,SSW,202,0.0,4.0,69,0.00,,,0.00,WUHU21623XXSP,2013-05-15 13:05:00,
2013-05-15 08:10:00,68.4,57.8,30.06,South,180,5.6,5.6,69,0.00,,,0.00,WUHU21623XXSP,2013-05-15 13:10:00,
2013-05-15 08:15:00,68.5,58.0,30.06,WSW,247,2.0,5.6,69,0.00,,,0.00,WUHU21623XXSP,2013-05-15 13:15:00,
2013-05-15 08:20:00,68.7,58.1,30.06,SW,225,0.0,6.5,69,0.00,,,0.00,WUHU21623XXSP,2013-05-15 13:20:00,
2013-05-15 08:25:00,68.9,58.3,30.06,SSW,202,5.8,6.5,69,0.00,,,0.00,WUHU21623XXSP,2013-05-15 13:25:00,
2013-05-15 08:30:00,69.1,58.5,30.06,SSE,157,0.2,5.8,69,0.00,,,0.00,WUHU21623XXSP,2013-05-15 13:30:00,
2013-05-15 08:35:00,69.4,58.8,30.06,South,180,4.9,5.8,69,0.00,,,0.00,WUHU21623XXSP,2013-05-15 13:35:00,
2013-05-15 08:40:00,69.4,58.8,30.06,South,180,4.9,4.9,69,0.00,,,0.00,WUHU21623XXSP,2013-05-15 13:40:00,
2013-05-15 08:45:00,69.6,58.9,30.06,South,180,3.8,4.9,69,0.00,,,0.00,WUHU21623XXSP,2013-05-15 13:45:00,
2013-05-15 08:50:00,70.0,59.3,30.06,SSW,202,2.0,4.9,69,0.00,,,0.00,WUHU21623XXSP,2013-05-15 13:50:00,
2013-05-15 08:55:00,70.0,59.3,30.06,South,180,6.5,6.5,69,0.00,,,0.00,WUHU21623XXSP,2013-05-15 13:55:00,
2013-05-15 09:00:00,70.3,59.5,30.06,SSW,202,0.0,6.5,69,0.00,,,0.00,WUHU21623XXSP,2013-05-15 14:00:00,
2013-05-15 09:05:00,70.7,60.0,30.06,SSE,157,6.7,6.7,69,0.00,,,0.00,WUHU21623XXSP,2013-05-15 14:05:00,
2013-05-15 09:10:00,70.9,60.2,30.06,SSW,202,3.6,6.7,69,0.00,,,0.00,WUHU21623XXSP,2013-05-15 14:10:00,
2013-05-15 09:15:00,70.9,59.8,30.06,SSW,202,0.9,5.4,68,0.00,,,0.00,WUHU21623XXSP,2013-05-15 14:15:00,
2013-05-15 09:20:00,71.2,59.9,30.06,WSW,247,5.6,6.0,68,0.00,,,0.00,WUHU21623XXSP,2013-05-15 14:20:00,
2013-05-15 09:25:00,71.2,60.1,30.05,SSW,202,9.6,9.6,68,0.00,,,0.00,WUHU21623XXSP,2013-05-15 14:25:00,
2013-05-15 09:30:00,71.4,60.3,30.06,SW,225,5.8,9.6,68,0.00,,,0.00,WUHU21623XXSP,2013-05-15 14:30:00,
2013-05-15 09:35:00,71.6,60.3,30.06,SW,225,3.6,5.8,68,0.00,,,0.00,WUHU21623XXSP,2013-05-15 14:35:00,
2013-05-15 09:40:00,71.6,60.5,30.06,SW,225,0.0,5.8,68,0.00,,,0.00,WUHU21623XXSP,2013-05-15 14:40:00,
2013-05-15 09:46:00,71.6,60.5,30.06,SSE,157,0.0,3.6,68,0.00,,,0.00,WUHU21623XXSP,2013-05-15 14:46:00,
2013-05-15 09:51:00,71.8,60.6,30.07,South,180,3.4,3.8,68,0.00,,,0.00,WUHU21623XXSP,2013-05-15 14:51:00,
2013-05-15 09:56:00,71.8,60.6,30.06,SW,225,4.0,6.5,68,0.00,,,0.00,WUHU21623XXSP,2013-05-15 14:56:00,
2013-05-15 10:01:00,72.0,61.3,30.06,South,180,0.7,6.5,69,0.00,,,0.00,WUHU21623XXSP,2013-05-15 15:01:00,
2013-05-15 10:06:00,72.1,61.4,30.05,South,180,0.0,2.5,69,0.00,,,0.00,WUHU21623XXSP,2013-05-15 15:06:00,
2013-05-15 10:11:00,72.3,61.6,30.06,WSW,247,0.0,2.5,69,0.00,,,0.00,WUHU21623XXSP,2013-05-15 15:11:00,
2013-05-15 10:16:00,72.5,61.8,30.06,SW,225,11.0,11.0,69,0.00,,,0.00,WUHU21623XXSP,2013-05-15 15:16:00,
2013-05-15 10:21:00,72.5,61.8,30.06,SSW,202,0.0,11.0,69,0.00,,,0.00,WUHU21623XXSP,2013-05-15 15:21:00,
2013-05-15 10:26:00,72.7,62.0,30.06,SW,225,0.0,0.0,69,0.00,,,0.00,WUHU21623XXSP,2013-05-15 15:26:00,
2013-05-15 10:31:00,72.9,61.7,30.06,WSW,247,0.0,0.0,68,0.00,,,0.00,WUHU21623XXSP,2013-05-15 15:31:00,
2013-05-15 10:36:00,72.9,62.0,30.05,WSW,247,0.0,0.0,69,0.00,,,0.00,WUHU21623XXSP,2013-05-15 15:36:00,
2013-05-15 10:42:00,72.9,62.2,30.05,SE,135,5.1,5.1,69,0.00,,,0.00,WUHU21623XXSP,2013-05-15 15:42:00,
2013-05-15 10:47:00,73.0,62.3,30.05,WSW,247,2.7,5.1,69,0.00,,,0.00,WUHU21623XXSP,2013-05-15 15:47:00,
2013-05-15 10:52:00,73.0,61.9,30.05,WSW,247,0.0,4.7,68,0.00,,,0.00,WUHU21623XXSP,2013-05-15 15:52:00,
2013-05-15 10:57:00,73.2,62.5,30.05,South,180,7.8,7.8,68,0.00,,,0.00,WUHU21623XXSP,2013-05-15 15:57:00,
2013-05-15 11:02:00,73.2,62.5,30.05,SSW,202,0.7,7.8,69,0.00,,,0.00,WUHU21623XXSP,2013-05-15 16:02:00,
2013-05-15 11:07:00,73.4,62.5,30.05,South,180,2.5,7.8,68,0.00,,,0.00,WUHU21623XXSP,2013-05-15 16:07:00,
2013-05-15 11:12:00,73.6,62.4,30.06,SSW,202,0.0,2.5,68,0.00,,,0.00,WUHU21623XXSP,2013-05-15 16:12:00,
2013-05-15 11:18:00,73.6,62.9,30.05,WSW,247,0.0,1.1,69,0.00,,,0.00,WUHU21623XXSP,2013-05-15 16:18:00,
2013-05-15 11:23:00,73.9,62.7,30.06,SSW,202,0.0,0.0,68,0.00,,,0.00,WUHU21623XXSP,2013-05-15 16:23:00,
2013-05-15 11:28:00,73.9,62.7,30.05,SSW,202,0.0,0.0,68,0.00,,,0.00,WUHU21623XXSP,2013-05-15 16:28:00,
2013-05-15 11:33:00,74.1,62.9,30.05,South,180,0.0,0.0,68,0.00,,,0.00,WUHU21623XXSP,2013-05-15 16:33:00,
2013-05-15 11:38:00,73.9,62.3,30.05,SSW,202,0.0,0.0,67,0.00,,,0.00,WUHU21623XXSP,2013-05-15 16:38:00,
2013-05-15 11:43:00,73.9,62.7,30.06,South,180,1.3,1.3,68,0.00,,,0.00,WUHU21623XXSP,2013-05-15 16:43:00,
2013-05-15 11:48:00,73.8,62.1,30.06,SSW,202,0.0,6.3,67,0.00,,,0.00,WUHU21623XXSP,2013-05-15 16:48:00,
2013-05-15 11:53:00,73.6,62.4,30.06,SW,225,0.0,6.3,68,0.00,,,0.00,WUHU21623XXSP,2013-05-15 16:53:00,
2013-05-15 11:58:00,73.8,62.6,30.06,SW,225,0.0,1.1,68,0.00,,,0.00,WUHU21623XXSP,2013-05-15 16:58:00,
2013-05-15 12:03:00,73.9,62.7,30.06,SW,225,0.9,0.9,68,0.00,,,0.00,WUHU21623XXSP,2013-05-15 17:03:00,
2013-05-15 12:08:00,73.8,62.6,30.06,SW,225,0.0,0.9,68,0.00,,,0.00,WUHU21623XXSP,2013-05-15 17:08:00,
2013-05-15 12:13:00,73.2,62.1,30.06,South,180,2.5,2.5,68,0.00,,,0.00,WUHU21623XXSP,2013-05-15 17:13:00,
2013-05-15 12:18:00,73.0,62.3,30.06,SSW,202,0.0,4.9,69,0.00,,,0.00,WUHU21623XXSP,2013-05-15 17:18:00,
2013-05-15 12:23:00,72.7,62.0,30.06,South,180,1.8,4.9,69,0.00,,,0.00,WUHU21623XXSP,2013-05-15 17:23:00,
2013-05-15 12:28:00,72.5,61.8,30.06,SSW,202,6.0,6.0,69,0.00,,,0.00,WUHU21623XXSP,2013-05-15 17:28:00,
2013-05-15 12:33:00,72.3,62.1,30.06,SW,225,0.0,6.0,70,0.00,,,0.00,WUHU21623XXSP,2013-05-15 17:33:00,
2013-05-15 12:38:00,72.1,61.9,30.06,SW,225,0.0,0.0,70,0.00,,,0.00,WUHU21623XXSP,2013-05-15 17:38:00,
2013-05-15 12:43:00,72.1,61.9,30.06,SSW,202,0.0,0.0,70,0.00,,,0.00,WUHU21623XXSP,2013-05-15 17:43:00,
2013-05-15 12:49:00,72.1,61.9,30.05,SSE,157,0.0,0.0,70,0.00,,,0.00,WUHU21623XXSP,2013-05-15 17:49:00,
2013-05-15 12:54:00,71.8,61.9,30.05,SSW,202,0.0,0.9,71,0.00,,,0.00,WUHU21623XXSP,2013-05-15 17:54:00,
2013-05-15 12:59:00,71.8,61.9,30.05,SSE,157,0.0,0.9,71,0.00,,,0.00,WUHU21623XXSP,2013-05-15 17:59:00,
2013-05-15 13:04:00,72.0,62.1,30.05,SSW,202,0.0,0.0,71,0.00,,,0.00,WUHU21623XXSP,2013-05-15 18:04:00,
2013-05-15 13:09:00,72.3,62.3,30.05,SSW,202,4.0,4.0,71,0.00,,,0.00,WUHU21623XXSP,2013-05-15 18:09:00,
2013-05-15 13:14:00,72.9,63.4,30.04,SSW,202,0.0,4.0,72,0.00,,,0.00,WUHU21623XXSP,2013-05-15 18:14:00,
2013-05-15 13:19:00,73.4,63.1,30.04,WSW,247,0.2,3.8,70,0.00,,,0.00,WUHU21623XXSP,2013-05-15 18:19:00,
2013-05-15 13:24:00,73.9,63.5,30.03,SSW,202,0.0,3.8,70,0.00,,,0.00,WUHU21623XXSP,2013-05-15 18:24:00,
2013-05-15 13:29:00,74.5,63.7,30.02,South,180,0.0,0.0,69,0.00,,,0.00,WUHU21623XXSP,2013-05-15 18:29:00,
2013-05-15 13:34:00,74.8,63.6,30.02,WSW,247,0.0,2.0,68,0.00,,,0.00,WUHU21623XXSP,2013-05-15 18:34:00,
2013-05-15 13:39:00,74.5,63.2,30.02,SSW,202,0.0,2.0,68,0.00,,,0.00,WUHU21623XXSP,2013-05-15 18:39:00,
2013-05-15 13:44:00,74.5,63.2,30.02,South,180,6.0,6.0,68,0.00,,,0.00,WUHU21623XXSP,2013-05-15 18:44:00,
2013-05-15 13:49:00,74.1,63.3,30.02,SW,225,0.0,6.0,69,0.00,,,0.00,WUHU21623XXSP,2013-05-15 18:49:00,
2013-05-15 13:55:00,74.1,63.3,30.02,SW,225,6.5,6.5,69,0.00,,,0.00,WUHU21623XXSP,2013-05-15 18:55:00,
2013-05-15 14:00:00,74.1,63.3,30.02,WSW,247,0.0,6.5,69,0.00,,,0.00,WUHU21623XXSP,2013-05-15 19:00:00,
2013-05-15 14:05:00,73.9,63.2,30.02,SSE,157,0.0,2.7,69,0.00,,,0.00,WUHU21623XXSP,2013-05-15 19:05:00,
2013-05-15 14:10:00,73.9,63.6,30.02,South,180,0.0,2.7,70,0.00,,,0.00,WUHU21623XXSP,2013-05-15 19:10:00,
2013-05-15 14:15:00,73.8,63.5,30.02,SSW,202,0.0,1.8,70,0.00,,,0.00,WUHU21623XXSP,2013-05-15 19:15:00,
2013-05-15 14:20:00,73.4,63.1,30.01,South,180,0.0,1.8,70,0.00,,,0.00,WUHU21623XXSP,2013-05-15 19:20:00,
2013-05-15 14:25:00,73.2,63.0,30.02,SSW,202,4.9,4.9,70,0.00,,,0.00,WUHU21623XXSP,2013-05-15 19:25:00,
2013-05-15 14:30:00,72.9,62.6,30.01,South,180,0.0,4.9,70,0.00,,,0.00,WUHU21623XXSP,2013-05-15 19:30:00,
2013-05-15 14:35:00,72.3,62.4,30.01,South,180,0.0,0.0,71,0.00,,,0.00,WUHU21623XXSP,2013-05-15 19:35:00,
2013-05-15 14:40:00,72.3,62.4,30.02,South,180,0.0,0.0,71,0.00,,,0.00,WUHU21623XXSP,2013-05-15 19:40:00,
2013-05-15 14:45:00,72.0,62.5,30.01,South,180,0.0,3.1,72,0.00,,,0.00,WUHU21623XXSP,2013-05-15 19:45:00,
2013-05-15 14:50:00,71.8,62.3,30.01,South,180,0.0,4.9,72,0.00,,,0.00,WUHU21623XXSP,2013-05-15 19:50:00,
2013-05-15 14:56:00,71.8,62.7,30.02,South,180,0.0,4.9,73,0.00,,,0.00,WUHU21623XXSP,2013-05-15 19:56:00,
2013-05-15 15:01:00,71.2,62.1,30.02,South,180,0.0,2.9,73,0.00,,,0.00,WUHU21623XXSP,2013-05-15 20:01:00,
2013-05-15 15:06:00,71.1,62.3,30.02,South,180,0.0,2.9,74,0.00,,,0.00,WUHU21623XXSP,2013-05-15 20:06:00,
2013-05-15 15:11:00,70.9,62.1,30.02,South,180,0.0,0.0,74,0.00,,,0.00,WUHU21623XXSP,2013-05-15 20:11:00,
2013-05-15 15:16:00,70.5,62.2,30.02,SSW,202,0.0,0.0,75,0.00,,,0.00,WUHU21623XXSP,2013-05-15 20:16:00,
2013-05-15 15:21:00,70.3,62.0,30.01,SSW,202,0.0,0.0,75,0.00,,,0.00,WUHU21623XXSP,2013-05-15 20:21:00,
2013-05-15 15:26:00,69.6,62.0,30.01,SW,225,0.0,0.0,77,0.00,,,0.00,WUHU21623XXSP,2013-05-15 20:26:00,
2013-05-15 15:31:00,69.1,62.3,30.01,SW,225,0.0,0.0,79,0.00,,,0.00,WUHU21623XXSP,2013-05-15 20:31:00,
2013-05-15 15:36:00,68.4,62.0,30.02,SW,225,0.0,0.0,80,0.00,,,0.00,WUHU21623XXSP,2013-05-15 20:36:00,
2013-05-15 15:41:00,67.1,61.1,30.02,WSW,247,0.0,0.0,81,0.00,,,0.00,WUHU21623XXSP,2013-05-15 20:41:00,
2013-05-15 15:46:00,66.4,60.8,30.02,SW,225,0.0,0.0,82,0.00,,,0.00,WUHU21623XXSP,2013-05-15 20:46:00,
2013-05-15 15:51:00,66.0,60.7,30.02,SSW,202,0.0,0.0,83,0.00,,,0.00,WUHU21623XXSP,2013-05-15 20:51:00,
2013-05-15 15:56:00,65.3,60.3,30.00,SSW,202,0.0,0.0,84,0.00,,,0.00,WUHU21623XXSP,2013-05-15 20:56:00,
2013-05-15 16:01:00,65.1,60.2,30.00,SSW,202,0.0,0.0,84,0.00,,,0.00,WUHU21623XXSP,2013-05-15 21:01:00,
2013-05-15 16:06:00,64.9,60.0,30.00,SSW,202,0.0,0.0,84,0.00,,,0.00,WUHU21623XXSP,2013-05-15 21:06:00,
2013-05-15 16:11:00,64.8,60.2,30.00,South,180,0.0,0.0,85,0.00,,,0.00,WUHU21623XXSP,2013-05-15 21:11:00,
2013-05-15 16:16:00,64.6,60.2,29.99,South,180,0.0,0.0,85,0.00,,,0.00,WUHU21623XXSP,2013-05-15 21:16:00,
2013-05-15 16:21:00,64.6,60.0,29.99,South,180,0.0,0.0,85,0.00,,,0.00,WUHU21623XXSP,2013-05-15 21:21:00,
2013-05-15 16:26:00,64.6,60.0,29.99,South,180,0.0,0.0,85,0.00,,,0.00,WUHU21623XXSP,2013-05-15 21:26:00,
2013-05-15 16:31:00,64.6,60.0,30.00,SSW,202,0.0,0.0,85,0.00,,,0.00,WUHU21623XXSP,2013-05-15 21:31:00,
2013-05-15 16:36:00,64.6,60.3,30.00,SSW,202,0.0,0.0,86,0.00,,,0.00,WUHU21623XXSP,2013-05-15 21:36:00,
2013-05-15 16:42:00,64.6,60.3,29.99,South,180,0.0,0.0,86,0.00,,,0.00,WUHU21623XXSP,2013-05-15 21:42:00,
2013-05-15 16:47:00,64.6,60.7,29.99,South,180,0.0,0.0,87,0.00,,,0.00,WUHU21623XXSP,2013-05-15 21:47:00,
2013-05-15 16:52:00,64.8,60.8,29.99,SSW,202,0.0,0.0,87,0.00,,,0.00,WUHU21623XXSP,2013-05-15 21:52:00,
2013-05-15 16:57:00,64.6,60.7,30.00,SSW,202,0.0,0.0,87,0.00,,,0.00,WUHU21623XXSP,2013-05-15 21:57:00,
2013-05-15 17:02:00,64.8,60.8,29.99,South,180,0.0,0.0,87,0.00,,,0.00,WUHU21623XXSP,2013-05-15 22:02:00,
2013-05-15 17:07:00,64.6,60.7,29.99,SSW,202,0.0,0.0,87,0.00,,,0.00,WUHU21623XXSP,2013-05-15 22:07:00,
2013-05-15 17:12:00,64.8,60.8,29.99,SSW,202,0.0,0.0,87,0.00,,,0.00,WUHU21623XXSP,2013-05-15 22:12:00,
2013-05-15 17:17:00,64.9,61.0,29.99,SSW,202,0.0,0.0,87,0.00,,,0.00,WUHU21623XXSP,2013-05-15 22:17:00,
2013-05-15 17:22:00,65.3,61.3,29.98,SSW,202,0.0,0.0,87,0.00,,,0.00,WUHU21623XXSP,2013-05-15 22:22:00,
2013-05-15 17:27:00,65.8,62.2,29.98,South,180,0.0,0.0,88,0.00,,,0.00,WUHU21623XXSP,2013-05-15 22:27:00,
2013-05-15 17:32:00,66.4,62.7,29.97,South,180,0.0,0.0,88,0.00,,,0.00,WUHU21623XXSP,2013-05-15 22:32:00,
2013-05-15 17:37:00,66.6,62.9,29.97,South,180,0.0,0.0,88,0.00,,,0.00,WUHU21623XXSP,2013-05-15 22:37:00,
2013-05-15 17:42:00,66.7,63.0,29.98,South,180,0.0,0.0,88,0.00,,,0.00,WUHU21623XXSP,2013-05-15 22:42:00,
2013-05-15 17:47:00,67.1,63.4,29.97,SSW,202,0.0,0.0,88,0.00,,,0.00,WUHU21623XXSP,2013-05-15 22:47:00,
2013-05-15 17:52:00,67.1,63.1,29.97,South,180,0.0,0.0,87,0.00,,,0.00,WUHU21623XXSP,2013-05-15 22:52:00,
2013-05-15 17:57:00,67.3,63.2,29.97,South,180,0.0,0.0,87,0.00,,,0.00,WUHU21623XXSP,2013-05-15 22:57:00,
2013-05-15 18:03:00,67.6,63.6,29.96,South,180,0.0,0.0,87,0.00,,,0.00,WUHU21623XXSP,2013-05-15 23:03:00,
2013-05-15 18:08:00,67.6,63.3,29.97,South,180,0.0,0.0,86,0.00,,,0.00,WUHU21623XXSP,2013-05-15 23:08:00,
2013-05-15 18:13:00,67.8,63.5,29.96,SSW,202,0.0,0.0,86,0.00,,,0.00,WUHU21623XXSP,2013-05-15 23:13:00,
2013-05-15 18:18:00,67.8,63.1,29.97,South,180,0.0,0.0,85,0.00,,,0.00,WUHU21623XXSP,2013-05-15 23:18:00,
2013-05-15 18:23:00,68.0,63.3,29.96,SSE,157,0.0,0.0,85,0.00,,,0.00,WUHU21623XXSP,2013-05-15 23:23:00,
2013-05-15 18:28:00,68.2,63.5,29.95,South,180,0.0,0.0,85,0.00,,,0.00,WUHU21623XXSP,2013-05-15 23:28:00,
2013-05-15 18:33:00,68.2,63.5,29.95,South,180,0.0,0.0,85,0.00,,,0.00,WUHU21623XXSP,2013-05-15 23:33:00,
2013-05-15 18:38:00,68.2,63.5,29.95,South,180,0.0,0.0,85,0.00,,,0.00,WUHU21623XXSP,2013-05-15 23:38:00,
2013-05-15 18:43:00,68.2,63.2,29.95,South,180,0.0,0.0,84,0.00,,,0.00,WUHU21623XXSP,2013-05-15 23:43:00,
2013-05-15 18:48:00,68.2,63.2,29.96,South,180,0.0,0.0,84,0.00,,,0.00,WUHU21623XXSP,2013-05-15 23:48:00,
2013-05-15 18:53:00,68.2,63.2,29.95,South,180,0.0,0.0,84,0.00,,,0.00,WUHU21623XXSP,2013-05-15 23:53:00,
2013-05-15 18:58:00,68.2,63.2,29.95,South,180,0.0,0.0,84,0.00,,,0.00,WUHU21623XXSP,2013-05-15 23:58:00,
2013-05-15 19:03:00,68.2,63.2,29.95,South,180,0.0,0.0,84,0.00,,,0.00,WUHU21623XXSP,2013-05-16 00:03:00,
2013-05-15 19:08:00,68.0,63.0,29.95,South,180,0.0,0.0,84,0.00,,,0.00,WUHU21623XXSP,2013-05-16 00:08:00,
2013-05-15 19:14:00,67.8,62.5,29.96,South,180,0.0,0.0,83,0.00,,,0.00,WUHU21623XXSP,2013-05-16 00:14:00,
2013-05-15 19:19:00,67.8,62.5,29.95,South,180,0.0,0.0,83,0.00,,,0.00,WUHU21623XXSP,2013-05-16 00:19:00,
2013-05-15 19:24:00,67.8,62.5,29.96,South,180,0.0,0.0,83,0.00,,,0.00,WUHU21623XXSP,2013-05-16 00:24:00,
2013-05-15 19:29:00,67.6,62.3,29.96,South,180,0.0,0.0,83,0.00,,,0.00,WUHU21623XXSP,2013-05-16 00:29:00,
2013-05-15 19:35:00,67.6,62.3,29.96,South,180,0.0,0.0,83,0.00,,,0.00,WUHU21623XXSP,2013-05-16 00:35:00,
2013-05-15 19:40:00,67.6,62.3,29.96,SSE,157,0.0,0.0,83,0.00,,,0.00,WUHU21623XXSP,2013-05-16 00:40:00,
2013-05-15 19:45:00,67.6,62.3,29.96,South,180,0.0,0.0,83,0.00,,,0.00,WUHU21623XXSP,2013-05-16 00:45:00,
2013-05-15 19:50:00,67.5,62.1,29.96,South,180,0.0,0.0,83,0.00,,,0.00,WUHU21623XXSP,2013-05-16 00:50:00,
2013-05-15 19:55:00,67.3,62.0,29.96,South,180,0.0,0.0,83,0.00,,,0.00,WUHU21623XXSP,2013-05-16 00:55:00,
2013-05-15 20:00:00,67.3,62.0,29.97,South,180,0.0,0.0,83,0.00,,,0.00,WUHU21623XXSP,2013-05-16 01:00:00,
2013-05-15 20:05:00,67.3,62.0,29.96,South,180,0.0,0.0,83,0.00,,,0.00,WUHU21623XXSP,2013-05-16 01:05:00,
2013-05-15 20:10:00,67.3,62.0,29.96,South,180,0.0,0.0,83,0.00,,,0.00,WUHU21623XXSP,2013-05-16 01:10:00,
2013-05-15 20:15:00,67.3,62.0,29.96,South,180,0.0,0.0,83,0.00,,,0.00,WUHU21623XXSP,2013-05-16 01:15:00,
2013-05-15 20:20:00,67.3,62.0,29.96,South,180,0.0,0.0,83,0.00,,,0.00,WUHU21623XXSP,2013-05-16 01:20:00,
2013-05-15 20:26:00,67.1,61.8,29.96,South,180,0.0,0.0,83,0.00,,,0.00,WUHU21623XXSP,2013-05-16 01:26:00,
2013-05-15 20:31:00,66.9,61.6,29.96,South,180,0.0,0.0,83,0.00,,,0.00,WUHU21623XXSP,2013-05-16 01:31:00,
2013-05-15 20:36:00,66.7,61.4,29.97,South,180,0.0,0.0,83,0.00,,,0.00,WUHU21623XXSP,2013-05-16 01:36:00,
2013-05-15 20:41:00,66.7,61.4,29.97,South,180,0.0,0.0,83,0.00,,,0.00,WUHU21623XXSP,2013-05-16 01:41:00,
2013-05-15 20:46:00,66.7,61.4,29.97,South,180,0.0,0.0,83,0.00,,,0.00,WUHU21623XXSP,2013-05-16 01:46:00,
2013-05-15 20:51:00,66.6,61.4,29.97,South,180,0.0,0.0,83,0.00,,,0.00,WUHU21623XXSP,2013-05-16 01:51:00,
2013-05-15 20:56:00,66.6,61.2,29.97,South,180,0.0,0.0,83,0.00,,,0.00,WUHU21623XXSP,2013-05-16 01:56:00,
2013-05-15 21:01:00,66.6,61.2,29.97,South,180,0.0,0.0,83,0.00,,,0.00,WUHU21623XXSP,2013-05-16 02:01:00,
2013-05-15 21:06:00,66.6,61.6,29.96,South,180,0.0,0.0,84,0.00,,,0.00,WUHU21623XXSP,2013-05-16 02:06:00,
2013-05-15 21:11:00,66.4,61.1,29.97,South,180,0.0,0.0,83,0.00,,,0.00,WUHU21623XXSP,2013-05-16 02:11:00,
2013-05-15 21:16:00,66.4,61.1,29.96,South,180,0.0,0.0,83,0.00,,,0.00,WUHU21623XXSP,2013-05-16 02:16:00,
2013-05-15 21:21:00,66.4,61.1,29.96,South,180,0.0,0.0,83,0.00,,,0.00,WUHU21623XXSP,2013-05-16 02:21:00,
2013-05-15 21:26:00,66.2,60.9,29.96,South,180,0.0,0.0,84,0.00,,,0.00,WUHU21623XXSP,2013-05-16 02:26:00,
2013-05-15 21:31:00,66.0,61.0,29.97,South,180,0.0,0.0,84,0.00,,,0.00,WUHU21623XXSP,2013-05-16 02:31:00,
2013-05-15 21:36:00,66.0,61.0,29.96,South,180,0.0,0.0,84,0.00,,,0.00,WUHU21623XXSP,2013-05-16 02:36:00,
2013-05-15 21:41:00,65.8,60.8,29.97,South,180,0.0,0.0,84,0.00,,,0.00,WUHU21623XXSP,2013-05-16 02:41:00,
2013-05-15 21:46:00,65.8,60.8,29.97,South,180,0.0,0.0,84,0.00,,,0.00,WUHU21623XXSP,2013-05-16 02:46:00,
2013-05-15 21:52:00,65.5,60.7,29.97,South,180,0.0,0.0,84,0.00,,,0.00,WUHU21623XXSP,2013-05-16 02:52:00,
2013-05-15 21:57:00,65.5,60.5,29.97,South,180,0.0,0.0,84,0.00,,,0.00,WUHU21623XXSP,2013-05-16 02:57:00,
2013-05-15 22:02:00,65.3,60.2,29.97,South,180,0.0,0.0,83,0.00,,,0.00,WUHU21623XXSP,2013-05-16 03:02:00,
2013-05-15 22:07:00,65.3,60.0,29.97,South,180,0.0,0.0,83,0.00,,,0.00,WUHU21623XXSP,2013-05-16 03:07:00,
2013-05-15 22:12:00,65.1,60.2,29.96,South,180,0.0,0.0,84,0.00,,,0.00,WUHU21623XXSP,2013-05-16 03:12:00,
2013-05-15 22:17:00,65.1,60.2,29.96,South,180,0.0,0.0,84,0.00,,,0.00,WUHU21623XXSP,2013-05-16 03:17:00,
2013-05-15 22:22:00,65.1,60.2,29.96,South,180,0.0,0.0,84,0.00,,,0.00,WUHU21623XXSP,2013-05-16 03:22:00,
2013-05-15 22:27:00,65.1,60.2,29.96,South,180,0.0,0.0,84,0.00,,,0.00,WUHU21623XXSP,2013-05-16 03:27:00,
2013-05-15 22:32:00,64.9,60.0,29.96,South,180,0.0,0.0,84,0.00,,,0.00,WUHU21623XXSP,2013-05-16 03:32:00,
2013-05-15 22:37:00,64.8,59.8,29.95,South,180,0.0,0.0,84,0.00,,,0.00,WUHU21623XXSP,2013-05-16 03:37:00,
2013-05-15 22:43:00,64.6,59.6,29.95,South,180,0.0,0.0,84,0.00,,,0.00,WUHU21623XXSP,2013-05-16 03:43:00,
2013-05-15 22:48:00,64.4,59.5,29.95,South,180,0.0,0.0,84,0.00,,,0.00,WUHU21623XXSP,2013-05-16 03:48:00,
2013-05-15 22:53:00,64.2,59.3,29.95,South,180,0.0,0.0,84,0.00,,,0.00,WUHU21623XXSP,2013-05-16 03:53:00,
2013-05-15 22:58:00,64.2,59.3,29.95,South,180,0.0,0.0,84,0.00,,,0.00,WUHU21623XXSP,2013-05-16 03:58:00,
2013-05-15 23:03:00,64.0,59.1,29.95,South,180,0.0,0.0,84,0.00,,,0.00,WUHU21623XXSP,2013-05-16 04:03:00,
2013-05-15 23:08:00,64.0,59.1,29.95,South,180,0.0,0.0,84,0.00,,,0.00,WUHU21623XXSP,2013-05-16 04:08:00,
2013-05-15 23:13:00,64.0,59.1,29.94,South,180,0.0,0.0,84,0.00,,,0.00,WUHU21623XXSP,2013-05-16 04:13:00,
2013-05-15 23:18:00,64.0,59.5,29.94,South,180,0.0,0.0,85,0.00,,,0.00,WUHU21623XXSP,2013-05-16 04:18:00,
2013-05-15 23:23:00,64.0,59.5,29.94,South,180,0.0,0.0,85,0.00,,,0.00,WUHU21623XXSP,2013-05-16 04:23:00,
2013-05-15 23:28:00,64.0,59.5,29.94,South,180,0.0,0.0,85,0.00,,,0.00,WUHU21623XXSP,2013-05-16 04:28:00,
2013-05-15 23:33:00,64.0,59.5,29.94,South,180,0.0,0.0,86,0.00,,,0.00,WUHU21623XXSP,2013-05-16 04:33:00,
2013-05-15 23:38:00,64.6,60.0,29.94,SSW,202,0.0,0.0,86,0.00,,,0.00,WUHU21623XXSP,2013-05-16 04:38:00,
2013-05-15 23:43:00,64.6,60.3,29.94,SSW,202,0.0,0.0,86,0.00,,,0.00,WUHU21623XXSP,2013-05-16 04:43:00,
2013-05-15 23:48:00,64.8,60.2,29.93,South,180,0.0,0.0,85,0.00,,,0.00,WUHU21623XXSP,2013-05-16 04:48:00,
2013-05-15 23:53:00,64.8,60.2,29.93,South,180,0.0,3.1,85,0.00,,,0.00,WUHU21623XXSP,2013-05-16 04:53:00,
2013-05-15 23:58:00,64.9,60.3,29.93,South,180,0.0,3.1,85,0.00,,,0.00,WUHU21623XXSP,2013-05-16 04:58:00,